Regional Weather Roundup
Issued by NWS

Home | Current Version | Previous Version | Graphics & Text | Print | Product List | Glossary On
Versions: 1 2 3 4 5 6 7 8 9 10 11 12 13 14 15 16 17 18 19 20 21 22 23 24 25 26 27
000
ASUS45 KBOU 231107
RWRCO

WEATHER ROUNDUP FOR COLORADO
NATIONAL WEATHER SERVICE DENVER/BOULDER CO
500 AM MDT THU OCT 23 2014

NOTE: "FAIR" INDICATES FEW OR NO CLOUDS BELOW 12000 FEET WITH NO
SIGNIFICANT WEATHER AND/OR OBSTRUCTIONS TO VISIBILITY.

COZ001>005-013-030-031-231200-
...NORTHWEST COLORADO...

CITY           SKY/WX    TMP DP  RH WIND       PRES   REMARKS
CRAIG          PTCLDY    29  26  89 CALM      30.27R
HAYDEN         CLEAR     36  28  75 E7        30.26S
MEEKER         CLEAR     34  31  88 NE6       30.27S WCI  29
MOUNT WERNER   NOT AVBL
STEAMBOAT SPGS CLEAR     32  30  93 CALM      30.28S
WALDEN         MOCLDY    28  25  86 SE6       30.27S WCI  22
$$

COZ006>008-011-231200-
...WEST CENTRAL VALLEYS...

CITY           SKY/WX    TMP DP  RH WIND       PRES   REMARKS
GRAND JUNCTION CLEAR     44  37  76 E5        30.21R
MONTROSE       CLEAR     40  35  83 S8        30.27S
EAGLE          CLEAR     34  34 100 SE3       30.34R
RIFLE          CLEAR     36  34  92 CALM      30.27R
DELTA          CLEAR     46  35  67 NE8       30.25S
NUCLA          NOT AVBL
$$

COZ017>023-064>068-231200-
...SOUTHWEST COLORADO...

CITY           SKY/WX    TMP DP  RH WIND       PRES   REMARKS
DURANGO        CLEAR     37  33  85 NE5       30.28R
CORTEZ         CLEAR     35  31  85 E6        30.26S WCI  30
PAGOSA SPRINGS CLEAR     35  35 100 CALM      30.32R
TELLURIDE      CLEAR     37  32  81 SE5       30.41R
WOLF CREEK PAS CLEAR     32  23  69 W7          N/A  WCI  26
$$

COZ009-010-012-014-032>034-037-058>063-231200-
...CENTRAL COLORADO...

CITY           SKY/WX    TMP DP  RH WIND       PRES   REMARKS
ASPEN          CLEAR     33  28  81 S7        30.32S WCI  27
BUENA VISTA    CLEAR     33  28  80 CALM      30.31S
COPPER MTN     CLEAR     34  25  69 W18       30.45R HAZE    WCI  23
BERTHOUD PASS  FAIR      27  23  86 NW35G48   30.40S WCI   9
COTTONWOOD PAS CLEAR     41  23  48 NW5       30.35F
GUNNISON       CLEAR     28  25  86 CALM      30.37S
KREMMLING      CLOUDY    28  27  93 CALM        N/A  FOG
LEADVILLE      CLEAR     33  23  66 N5        30.37S WCI  29
MONARCH PASS   FOG       30  28  93 W24       30.54S VSB<1/4 WCI  16
SALIDA         CLEAR     40  32  73 W3        30.37S
SUNLIGHT       CLEAR     34  32  93 CALM      30.44R
WILKERSON PASS NOT AVBL
$$

COZ069>075-231200-
...SAN LUIS VALLEY/SANGRE DE CRISTO MOUNTAINS...

CITY           SKY/WX    TMP DP  RH WIND       PRES   REMARKS
ALAMOSA        PTCLDY    30  27  88 CALM      30.30R
LA VETA PASS   CLEAR     34  30  86 SW7       30.36S WCI  28
SAGUACHE       CLEAR     37  32  81 W5        30.33R
$$

COZ035-036-038>040-231200-
...NORTHERN COLORADO FRONT RANGE...

CITY           SKY/WX    TMP DP  RH WIND       PRES   REMARKS
DENVER INTL AP PTCLDY    44  37  76 SW8       30.15S
DMNS CITY PARK   N/A     43  39  85 S8        30.15S
AURORA         PTCLDY    41  36  81 S7        30.17S
FRONT RANGE AP CLEAR     45  39  81 SW6       30.16S
ERIE MUNI ARPT PTCLDY    39  36  89 SW5       30.15S
BOULDER MUN AP PTCLDY    43  36  75 SW3       30.15R
CENTENNIAL     PTCLDY    40  34  79 S7        30.17S
BROOMFIELD     PTCLDY    43  34  70 W5        30.17R
FORT COLLINS   PTCLDY    43  36  75 CALM      30.15S
LONGMONT       PTCLDY    40  35  82 CALM      30.17R
$$

COZ041-046-047-076>085-087-088-231200-
...PIKES PEAK/PALMER DIVIDE AND SOUTHERN FOOTHILLS...

CITY           SKY/WX    TMP DP  RH WIND       PRES   REMARKS
COLO. SPRINGS  PTCLDY    42  38  85 N10       30.20F
A. F. ACADEMY  CLEAR     36  33  90 N5        30.21S
ELLICOTT       NOT AVBL
FALCON         CLEAR     40  38  91 NW6       30.23S
FORT CARSON    CLEAR     42  37  82 NW10      30.17F
LIMON          CLEAR     38  37  97 NE5       30.17S
MONUMENT HILL  CLEAR     37  32  81 SW9       30.21S
TRINIDAD       CLEAR     45  35  68 W13       30.18R
$$

COZ042>045-048>051-090-091-231200-
...NORTHEAST COLORADO...

CITY           SKY/WX    TMP DP  RH WIND       PRES   REMARKS
GREELEY ARPT   CLEAR     37  28  70 NW6       30.15R
AKRON          CLEAR     47  41  80 SW8       30.11F
BURLINGTON     MOCLDY    44  40  85 W7        30.13R
WRAY           CLEAR     39  34  81 W5        30.11F
STERLING       CLEAR     37  36  93 CALM      30.11S
HOLYOKE        CLEAR     41  34  75 W6        30.10F
FORT MORGAN    CLEAR     40  34  80 CALM      30.13S
$$

COZ086-089-092>099-231200-
...SOUTHEAST COLORADO...

CITY           SKY/WX    TMP DP  RH WIND       PRES   REMARKS
PUEBLO         CLEAR     44  40  85 NW3       30.15S
LA JUNTA       CLEAR     48  44  86 NW3       30.12R
LAMAR          CLEAR     45  42  89 CALM      30.09R
SPRINGFIELD      N/A     46  44  93 W6        30.10R
$$



USA.gov is the U.S. government's official web portal to all federal, state and local government web resources and services.